Location: Arrecife
(10.5858°N, 67.0742°W)
Time: 22:32:54
(UTC+00:00)

Hubble Space Telescope - Pass Details

Date: 29 November 2022
Orbit: 529 x 532 km, 28.5° (Epoch: 06 February)

Event Time Altitude Azimuth Distance (km) Brightness Sun altitude
Rises 09:56:28 0° 212° (SSW) 2,647 4.2 -8.5°
Reaches altitude 10° 09:59:19 10° 191° (SSW) 1,757 3.5 -7.8°
Maximum altitude 10:02:02 17° 149° (SSE) 1,358 3.6 -7.2°
Drops below altitude 10° 10:04:46 10° 107° (ESE) 1,756 5.2 -6.6°
Sets 10:07:36 0° 87° (E) 2,644 5.7 -5.9°
